Regional Weather Roundup
Issued by NWS Kansas City/Pleasant Hill, MO

Home | Current Version | Previous Version | Graphics & Text | Print | Product List | Glossary Off
Versions: 1 2 3 4 5 6 7 8 9 10 11 12 13 14 15 16 17 18 19 20 21 22 23 24 25 26 27 28 29 30 31 32 33 34 35 36 37 38 39 40 41 42 43 44 45 46 47 48 49 50

463
ASUS43 KEAX 190110
RWREAX

WEATHER ROUNDUP FOR EASTERN KANSAS AND NORTHWEST MISSOURI
NATIONAL WEATHER SERVICE KANSAS CITY/PLEASANT HILL MO
800 PM CDT WED OCT 18 2017

KSZ040-057-103>105-MOZ028-029-037-043-190200-
...KANSAS CITY METROPOLITAN AREA...

CITY           SKY/WX    TMP DP  RH WIND       PRES   REMARKS
K.C. INTL      PTCLDY    57  49  74 S8        30.03R
K.C. DOWNTOWN  CLEAR     67  49  52 CALM      30.02R
LEES SUMMIT    PTCLDY    66  51  58 S7        30.04R
OLATHE - IXD   PTCLDY    60  50  69 S7        30.03R
OLATHE - OJC   PTCLDY    61  50  67 S7        30.03R
LAWRENCE       CLEAR     59  51  75 E7        30.02R

$$

MOZ001>008-011>017-020>025-030>033-038>040-044>046-053-054-190200-
...NORTHERN AND CENTRAL MISSOURI...

CITY           SKY/WX    TMP DP  RH WIND       PRES   REMARKS
ST. JOSEPH     CLEAR     58  52  80 CALM      30.01R
MOSBY            N/A     59  52  77 CALM      30.04R
WARRENSBURG    CLOUDY    63  50  63 S5        30.05R
WHITEMAN AFB   CLEAR     62  51  68 SW5       30.01R
CLINTON        PTCLDY    66  50  55 CALM      30.06R
SEDALIA        CLOUDY    64  51  62 S7        30.06R
WARSAW         NOT AVBL
CHILLICOTHE      N/A     62  51  67 S6        30.04R
KIRKSVILLE     CLEAR     59  49  69 S7        30.04R

$$

MOZ041-047>049-056>058-063>065-088>090-097-190200-
...EASTERN AND SOUTHERN MISSOURI...

CITY           SKY/WX    TMP DP  RH WIND       PRES   REMARKS
ST. LOUIS INTL PTCLDY    68  46  45 S12       30.10S
SPIRIT OF STL  CLEAR     64  47  53 S6        30.09R
COLUMBIA       CLEAR     62  46  55 S8        30.06R
JEFFERSON CITY CLOUDY    63  45  51 SE7       30.06R
ROLLA          CLEAR     63  45  51 S10       30.10S
OSAGE BEACH    PTCLDY    65  45  48 S5        30.08S
SPRINGFIELD    CLEAR     64  45  49 S10       30.08S
BRANSON        CLEAR     64  43  45 SE6       30.13R
JOPLIN         CLEAR     61  47  59 S7        30.08R
WEST PLAINS    CLEAR     64  48  56 S6        30.16R

$$

IAZ060-094-KSZ022-034>040-054-083-096-NEZ052-066-093-190200-
...KANSAS...SOUTHEAST NEBRASKA AND IOWA...

CITY           SKY/WX    TMP DP  RH WIND       PRES   REMARKS
TOPEKA         CLEAR     63  51  65 CALM      30.01R
MANHATTAN      CLEAR     57  51  80 CALM      30.00R
EMPORIA        PTCLDY    63  49  60 S8        30.02R
CHANUTE        CLEAR     64  50  60 S12       30.04S
WICHITA        PTCLDY    62  50  64 S10       30.01R
OMAHA          CLEAR     61  46  57 N8        30.01R
LINCOLN        CLEAR     59  45  59 N7        30.02R
FALLS CITY     CLEAR     63  50  62 CALM      30.00R
LAMONI         CLEAR     60  48  64 S8        30.02R
DES MOINES     MOCLDY    66  48  52 SW8       30.00R

$$





USA.gov is the U.S. government's official web portal to all federal, state and local government web resources and services.